[[{"header":{"parameterUnit":"m.s-1","parameterCategory":1,"la1":30.2992,"la2":30.254,"lo1":-89.0895,"lo2":-89.0443,"dy":0.0025,"dx":0.0025,"nx":19,"ny":19,"refTime":"2026-05-18T09:00:00:Z","depth":0,"parameterNumber":2,"parameterNumberName":"U-component_of_WINDS"},"data":[0,0,0,-3.899,-3.8992,-3.9068,-3.9069,-3.9191,-3.9192,0,0,0,0,0,0,0,0,0,0,0,-3.898,-3.8982,-3.899,-3.8992,-3.9068,-3.9069,-3.9191,-3.9193,0,0,0,0,0,0,0,0,0,0,0,-3.898,-3.8981,-3.8983,-3.8992,-3.9068,-3.9069,-3.9191,-3.9124,0,0,0,0,0,0,0,0,0,0,-3.9046,-3.905,-3.8981,-3.8983,-3.8993,-3.9068,-3.9069,-3.9121,-3.9129,-3.9167,0,-3.9203,0,-3.92,-3.9202,-3.9203,0,0,0,-3.8982,-3.9043,-3.9052,-3.8983,-3.8994,-3.9068,-3.9031,-3.9125,-3.9134,-3.9177,-3.9204,-3.9208,-3.9202,-3.9203,-3.9204,-3.9454,-3.9456,0,0,-3.8978,-3.9001,-3.9046,-3.9059,-3.9047,-3.9029,-3.9034,-3.913,-3.9161,-3.9205,-3.9211,-3.9204,-3.9204,-3.9205,-3.9453,-3.9455,0,0,0,-3.8972,-3.8999,-3.9005,-3.9054,-3.9066,-3.9031,-3.9037,-3.9157,-3.9157,-3.9212,-3.9205,-3.9205,-3.9207,-3.9451,-3.9453,-3.9556,0,0,0,-3.8969,-3.8996,-3.9003,-3.9019,-3.9065,-3.9112,-3.9062,-3.915,-3.916,-3.9205,-3.9205,-3.9208,-3.9449,-3.9452,-3.9549,-3.96,0,0,0,-3.8971,-3.8996,-3.9011,-3.902,-3.9053,-3.911,-3.9115,-3.9152,-3.9157,-3.9203,-3.9208,-3.9448,-3.9451,-3.9543,-3.959,-3.9673,0,0,0,-3.8979,-3.9101,-3.9013,-3.9147,-3.9053,-3.9173,-3.9114,-3.9203,-3.9254,-3.9206,-3.9449,-3.9453,-3.9541,-3.9584,-3.9666,-3.9746,-3.9781,0,0,-3.9146,-3.9122,-3.9199,-3.9123,-3.9264,-3.9159,-3.9317,-3.9342,-3.9325,-3.9413,-3.9418,-3.9551,-3.9589,-3.9671,-3.9973,-4.0002,0,0,0,-3.926,-3.9315,-3.9348,-3.9398,-3.942,-3.9444,-3.9443,-3.9453,-3.9526,-3.9375,-3.9603,-3.9625,-3.9672,-3.9709,-3.9733,-3.9772,-3.9471,-3.9471,-3.947,-3.9527,-3.95,-3.9626,-3.9609,-3.9659,-3.9658,-3.9696,-3.9709,-3.9667,-3.9722,-3.9747,-3.9933,-3.9977,-3.9995,-4.0036,-3.9788,-3.9788,-3.9788,-3.9789,-3.9768,-3.9842,-3.9785,-3.9886,-3.9858,-3.9944,-3.9949,-3.9917,-3.9993,-3.9911,-3.9952,-3.9864,-4.0027,-4.0062,-3.9796,-3.9795,-3.9794,-3.9793,-3.9793,-3.9939,-3.997,-3.9981,-4.0052,-4.0111,-4.009,-4.0167,-4.0138,-4.0112,-4.0152,-4.0176,-4.0174,-4.0169,-4.0166,-4.0167,-4.0168,-4.0168,-4.0169,-4.0169,-4.0112,-4.0121,-4.0188,-4.0224,-4.0254,-4.029,-4.0293,-4.0322,-4.0347,-4.032,-4.032,-4.0273,-4.0048,-3.9992,-4.0179,-4.0177,-4.0176,-4.0175,-4.0174,-4.0363,-4.0303,-4.0406,-4.0437,-4.0478,-4.054,-4.0504,-4.0566,-4.0586,-4.0626,-4.0571,-4.041,-4.0383,-4.0364,-4.0316,-4.0576,-4.0576,-4.0576,-4.0576,-4.0507,-4.0491,-4.0592,-4.0642,-4.0689,-4.0668,-4.0789,-4.0794,-4.079,-4.0801,-4.076,-4.0696,-4.0677,-4.0661,-4.0636,-4.0591,-4.0915,-4.0916,-4.0916,-4.066,-4.0648,-4.0755,-4.075,-4.0781,-4.081,-4.0923,-4.0985,-4.0968,-4.0929,-4.0809,-4.0795,-4.0691,-4.0659,-4.0615,-4.0576,-4.0493,0,0]},{"header":{"parameterUnit":"m.s-1","parameterCategory":1,"la1":30.2992,"la2":30.254,"lo1":-89.0895,"lo2":-89.0443,"dy":0.0025,"dx":0.0025,"nx":19,"ny":19,"refTime":"2026-05-18T09:00:00:Z","depth":0,"parameterNumber":3,"parameterNumberName":"V-component_of_WINDS"},"data":[0,0,0,2.1657,2.1659,2.1746,2.1746,2.1828,2.1829,0,0,0,0,0,0,0,0,0,0,0,2.1615,2.1615,2.1657,2.1659,2.1746,2.1746,2.1828,2.1829,0,0,0,0,0,0,0,0,0,0,0,2.1615,2.1615,2.1615,2.1659,2.1746,2.1746,2.1828,2.1773,0,0,0,0,0,0,0,0,0,0,2.1693,2.1638,2.1615,2.1615,2.166,2.1746,2.1746,2.177,2.1776,2.1777,0,2.1773,0,2.1802,2.1832,2.1833,0,0,0,2.1671,2.1633,2.1672,2.1615,2.166,2.1745,2.171,2.1774,2.178,2.1784,2.1775,2.1779,2.1804,2.1833,2.1833,2.1798,2.1797,0,0,2.1666,2.1621,2.1667,2.1675,2.1661,2.1707,2.1713,2.1778,2.1765,2.1775,2.1781,2.1805,2.1833,2.1833,2.1799,2.1798,0,0,0,2.1644,2.1617,2.1655,2.1671,2.1689,2.1709,2.1716,2.1762,2.1778,2.1782,2.1806,2.1833,2.1834,2.1799,2.1798,2.1717,0,0,0,2.1642,2.1604,2.1652,2.1625,2.1687,2.1726,2.1697,2.1774,2.1783,2.1805,2.1833,2.1835,2.18,2.1799,2.1721,2.1686,0,0,0,2.1615,2.1601,2.1608,2.1623,2.1659,2.1727,2.1747,2.1777,2.1796,2.1833,2.1835,2.1801,2.1799,2.1725,2.1692,2.1663,0,0,0,2.1572,2.1534,2.1606,2.1573,2.1657,2.1676,2.1747,2.1763,2.1785,2.1834,2.18,2.1798,2.1726,2.1696,2.1666,2.1629,2.1609,0,0,2.1499,2.1524,2.1508,2.1575,2.157,2.1667,2.165,2.1712,2.1757,2.1781,2.1781,2.172,2.1692,2.1663,2.1519,2.1503,0,0,0,2.147,2.1458,2.1466,2.1485,2.1533,2.157,2.1641,2.1664,2.1688,2.176,2.1704,2.1689,2.1673,2.1658,2.1644,2.1634,2.179,2.179,2.179,2.1299,2.136,2.1338,2.1409,2.1426,2.15,2.1519,2.1563,2.1618,2.1604,2.1611,2.1516,2.1496,2.1486,2.1474,2.1597,2.1597,2.1597,2.1597,2.1196,2.1188,2.1264,2.127,2.1334,2.1339,2.1409,2.1448,2.1461,2.1515,2.1505,2.1557,2.1467,2.1459,2.1591,2.1592,2.1593,2.1593,2.1594,2.109,2.1096,2.1127,2.1161,2.1181,2.1255,2.1264,2.1323,2.1377,2.1367,2.1381,2.1382,2.139,2.137,2.137,2.1369,2.1369,2.1369,2.1369,2.0966,2.1003,2.1005,2.1053,2.1074,2.1108,2.1182,2.1204,2.1242,2.1283,2.1284,2.1339,2.1447,2.1472,2.1364,2.1365,2.1365,2.1366,2.1366,2.0836,2.0876,2.0878,2.0898,2.096,2.0975,2.1051,2.1089,2.1116,2.1118,2.1178,2.1249,2.1277,2.1289,2.1309,2.1165,2.1165,2.1165,2.1165,2.0745,2.0767,2.0782,2.0811,2.0846,2.0915,2.0915,2.0973,2.1038,2.1058,2.1088,2.1121,2.113,2.1154,2.1168,2.1188,2.1017,2.1017,2.1017,2.0668,2.0696,2.0684,2.0751,2.0804,2.0848,2.085,2.0879,2.0962,2.1012,2.1075,2.1081,2.1136,2.1151,2.1199,2.1219,2.1258,0,0]}]]